SWIFT (28485 NORAD) Tracking and Keplerian Element Data

This shows tracking and keplerian element data for the satellite.

Feedback or suggestion? Click here.




ElementValue
Catalog28485
NameSWIFT
Epoch Orbit10975
Epoch Day35.03412817
Epoch Year2025
RAAN307.6642
Inclination20.5561
Eccentricity0.0006393
Argument of Perigee56.4042
Mean Anonmoly303.7007
Mean Motion15.30892334
Decay Rate0.00027855
L11 28485U 04047A 25035.03412817 .00027855 00000+0 88050-3 0 9993
L22 28485 20.5561 307.6642 0006393 56.4042 303.7007 15.30892334109758



Live tracking and technical data element details for SWIFT (NORAD 28485). SWIFT can be tracked NOW for your location showing map with azimuth and elevation plus other details from your city location.







IsCatalogInMostPopularTable: catalog: 28485, numindb: 358
Update: records affected: 1



GetName: 28485 SWIFT

Hit Count: updated at: Fri, 16 May 2025 12:00:29 GMT